• In Uzbekistan
  • List of Countries
  • For 7 days
  • Water Temperature
  • Weather Map
  • Weather Widgets
  • user-avatar
    Login

    Hourly Weather Sherpur

    Today, 3 June, Wednesday

    Time Temperature Precipitation Wind Pressure Humidity
    00:00 +19°C° 0 mm 2 mps 610 mmHg 36%
    01:00 +18°C° 0 mm 2 mps 609 mmHg 38%
    02:00 +19°C° 0 mm 1 mps 609 mmHg 40%
    03:00 +18°C° 0 mm 1 mps 608 mmHg 40%
    04:00 +16°C° 0 mm 1 mps 608 mmHg 40%
    05:00 +16°C° 0 mm 1 mps 608 mmHg 41%
    06:00 +18°C° 0 mm 1 mps 608 mmHg 35%
    07:00 +20°C° 0 mm 1 mps 609 mmHg 30%
    08:00 +21°C° 0 mm 1 mps 610 mmHg 24%
    09:00 +22°C° 0 mm 1 mps 610 mmHg 22%
    10:00 +24°C° 0 mm 2 mps 611 mmHg 20%
    11:00 +25°C° 0 mm 2 mps 611 mmHg 19%
    12:00 +25°C° 0 mm 2 mps 611 mmHg 20%
    13:00 +26°C° 0 mm 2 mps 611 mmHg 20%
    14:00 +27°C° 0 mm 2 mps 611 mmHg 20%
    15:00 +27°C° 0 mm 3 mps 611 mmHg 20%
    16:00 +27°C° 0 mm 3 mps 611 mmHg 20%
    17:00 +27°C° 0 mm 4 mps 610 mmHg 20%
    18:00 +26°C° 0 mm 4 mps 610 mmHg 23%
    19:00 +25°C° 0 mm 4 mps 610 mmHg 26%
    20:00 +23°C° 0 mm 4 mps 610 mmHg 29%
    21:00 +22°C° 0 mm 3 mps 610 mmHg 33%
    22:00 +21°C° 0 mm 3 mps 610 mmHg 38%
    23:00 +20°C° 0 mm 2 mps 610 mmHg 42%

    Tomorrow, 4 June, Thursday

    Time Temperature Precipitation Wind Pressure Humidity
    00:00 +20°C° 0 mm 2 mps 609 mmHg 44%
    01:00 +20°C° 0 mm 1 mps 609 mmHg 46%
    02:00 +19°C° 0 mm 1 mps 608 mmHg 49%
    03:00 +19°C° 0 mm 1 mps 608 mmHg 50%
    04:00 +18°C° 0 mm 1 mps 608 mmHg 51%
    05:00 +18°C° 0 mm 1 mps 608 mmHg 52%
    06:00 +19°C° 0 mm 1 mps 609 mmHg 45%
    07:00 +21°C° 0 mm 1 mps 609 mmHg 38%
    08:00 +22°C° 0 mm 1 mps 610 mmHg 32%
    09:00 +23°C° 0 mm 1 mps 610 mmHg 29%
    10:00 +25°C° 0 mm 2 mps 611 mmHg 26%
    11:00 +26°C° 0 mm 2 mps 611 mmHg 23%
    12:00 +27°C° 0 mm 2 mps 611 mmHg 21%
    13:00 +28°C° 0 mm 3 mps 611 mmHg 20%
    14:00 +29°C° 0 mm 3 mps 611 mmHg 19%
    15:00 +29°C° 0 mm 5 mps 611 mmHg 18%
    16:00 +29°C° 0 mm 6 mps 611 mmHg 17%
    17:00 +29°C° 0 mm 7 mps 610 mmHg 17%
    18:00 +28°C° 0 mm 6 mps 610 mmHg 18%
    19:00 +26°C° 0 mm 6 mps 610 mmHg 20%
    20:00 +25°C° 0 mm 5 mps 610 mmHg 22%
    21:00 +23°C° 0 mm 4 mps 610 mmHg 24%
    22:00 +22°C° 0 mm 3 mps 610 mmHg 26%
    23:00 +21°C° 0 mm 2 mps 610 mmHg 28%

    Day after tomorrow, 5 June, Friday

    Time Temperature Precipitation Wind Pressure Humidity
    00:00 +20°C° 0 mm 2 mps 609 mmHg 30%
    01:00 +20°C° 0 mm 2 mps 609 mmHg 32%
    02:00 +19°C° 0 mm 2 mps 609 mmHg 33%
    03:00 +18°C° 0 mm 2 mps 608 mmHg 34%
    04:00 +18°C° 0 mm 2 mps 608 mmHg 35%
    05:00 +18°C° 0 mm 1 mps 608 mmHg 35%
    06:00 +20°C° 0 mm 1 mps 609 mmHg 31%
    07:00 +22°C° 0 mm 1 mps 610 mmHg 27%
    08:00 +23°C° 0 mm 1 mps 611 mmHg 24%
    09:00 +25°C° 0 mm 1 mps 611 mmHg 22%
    10:00 +26°C° 0 mm 1 mps 611 mmHg 20%
    11:00 +27°C° 0 mm 2 mps 612 mmHg 18%
    12:00 +29°C° 0 mm 3 mps 612 mmHg 16%
    13:00 +30°C° 0 mm 5 mps 612 mmHg 15%
    14:00 +32°C° 0 mm 6 mps 612 mmHg 14%
    15:00 +32°C° 0 mm 7 mps 611 mmHg 14%
    16:00 +31°C° 0 mm 8 mps 611 mmHg 14%
    17:00 +31°C° 0 mm 9 mps 611 mmHg 14%
    18:00 +28°C° 0 mm 8 mps 610 mmHg 17%
    19:00 +27°C° 0 mm 7 mps 610 mmHg 19%
    20:00 +25°C° 0 mm 5 mps 610 mmHg 22%
    21:00 +23°C° 0 mm 4 mps 610 mmHg 24%
    22:00 +23°C° 0 mm 4 mps 610 mmHg 26%
    23:00 +22°C° 0 mm 3 mps 610 mmHg 28%

    6 June, Saturday

    Time Temperature Precipitation Wind Pressure Humidity
    00:00 +21°C° 0 mm 2 mps 610 mmHg 29%
    01:00 +20°C° 0 mm 2 mps 609 mmHg 30%
    02:00 +20°C° 0 mm 2 mps 609 mmHg 31%
    03:00 +19°C° 0 mm 2 mps 609 mmHg 31%
    04:00 +19°C° 0 mm 2 mps 609 mmHg 32%
    05:00 +18°C° 0 mm 2 mps 609 mmHg 32%
    06:00 +20°C° 0 mm 2 mps 610 mmHg 28%
    07:00 +23°C° 0 mm 2 mps 610 mmHg 25%
    08:00 +25°C° 0 mm 2 mps 611 mmHg 21%
    09:00 +26°C° 0 mm 4 mps 612 mmHg 19%
    10:00 +28°C° 0 mm 5 mps 612 mmHg 16%
    11:00 +29°C° 0 mm 7 mps 613 mmHg 14%
    12:00 +30°C° 0 mm 7 mps 613 mmHg 13%
    13:00 +32°C° 0 mm 8 mps 612 mmHg 13%
    14:00 +32°C° 0 mm 9 mps 612 mmHg 12%
    15:00 +32°C° 0 mm 9 mps 612 mmHg 12%
    16:00 +31°C° 0 mm 9 mps 611 mmHg 13%
    17:00 +31°C° 0 mm 9 mps 611 mmHg 13%
    18:00 +28°C° 0 mm 8 mps 611 mmHg 15%
    19:00 +27°C° 0 mm 6 mps 611 mmHg 16%
    20:00 +25°C° 0 mm 5 mps 610 mmHg 18%
    21:00 +23°C° 0 mm 4 mps 610 mmHg 19%
    22:00 +22°C° 0 mm 4 mps 610 mmHg 21%
    23:00 +21°C° 0 mm 3 mps 610 mmHg 22%

    7 June, Sunday

    Time Temperature Precipitation Wind Pressure Humidity
    00:00 +21°C° 0 mm 3 mps 610 mmHg 25%
    01:00 +20°C° 0 mm 3 mps 610 mmHg 27%
    02:00 +19°C° 0 mm 2 mps 609 mmHg 30%
    03:00 +19°C° 0 mm 2 mps 609 mmHg 32%
    04:00 +18°C° 0 mm 2 mps 609 mmHg 34%
    05:00 +17°C° 0 mm 2 mps 608 mmHg 36%
    06:00 +19°C° 0 mm 2 mps 609 mmHg 32%
    07:00 +22°C° 0 mm 1 mps 610 mmHg 28%
    08:00 +24°C° 0 mm 1 mps 611 mmHg 24%
    09:00 +25°C° 0 mm 1 mps 611 mmHg 20%
    10:00 +27°C° 0 mm 2 mps 612 mmHg 17%
    11:00 +28°C° 0 mm 2 mps 612 mmHg 14%
    12:00 +29°C° 0 mm 3 mps 612 mmHg 13%
    13:00 +30°C° 0 mm 4 mps 612 mmHg 12%
    14:00 +33°C° 0 mm 6 mps 612 mmHg 11%
    15:00 +32°C° 0 mm 7 mps 612 mmHg 12%
    16:00 +32°C° 0 mm 8 mps 611 mmHg 13%
    17:00 +32°C° 0 mm 9 mps 611 mmHg 13%
    18:00 +29°C° 0 mm 7 mps 611 mmHg 15%
    19:00 +27°C° 0 mm 6 mps 610 mmHg 18%
    20:00 +26°C° 0 mm 5 mps 610 mmHg 20%
    21:00 +25°C° 0 mm 4 mps 610 mmHg 22%
    22:00 +22°C° 0 mm 3 mps 610 mmHg 24%
    23:00 +21°C° 0 mm 2 mps 610 mmHg 26%

    8 June, Monday

    Time Temperature Precipitation Wind Pressure Humidity
    00:00 +21°C° 0 mm 2 mps 609 mmHg 28%
    01:00 +21°C° 0 mm 1 mps 609 mmHg 29%
    02:00 +20°C° 0 mm 1 mps 608 mmHg 31%
    03:00 +20°C° 0 mm 1 mps 608 mmHg 32%
    04:00 +19°C° 0 mm 1 mps 608 mmHg 33%
    05:00 +19°C° 0 mm 1 mps 607 mmHg 34%
    06:00 +20°C° 0 mm 1 mps 608 mmHg 30%
    07:00 +22°C° 0 mm 1 mps 609 mmHg 26%
    08:00 +24°C° 0 mm 1 mps 610 mmHg 23%
    09:00 +25°C° 0 mm 1 mps 610 mmHg 21%
    10:00 +27°C° 0 mm 1 mps 610 mmHg 19%
    11:00 +28°C° 0 mm 1 mps 611 mmHg 17%
    12:00 +29°C° 0 mm 1 mps 611 mmHg 16%
    13:00 +30°C° 0 mm 1 mps 611 mmHg 15%
    14:00 +31°C° 0 mm 1 mps 610 mmHg 14%
    15:00 +31°C° 0 mm 2 mps 610 mmHg 15%
    16:00 +31°C° 0 mm 2 mps 610 mmHg 15%
    17:00 +31°C° 0 mm 3 mps 610 mmHg 16%
    18:00 +30°C° 0 mm 3 mps 610 mmHg 19%
    19:00 +28°C° 0 mm 2 mps 610 mmHg 22%
    20:00 +27°C° 0 mm 2 mps 610 mmHg 26%
    21:00 +26°C° 0 mm 2 mps 610 mmHg 27%
    22:00 +26°C° 0 mm 2 mps 610 mmHg 29%
    23:00 +25°C° 0 mm 1 mps 610 mmHg 30%
    Show more